Date String (YYYY-MM-DD hh:mm:ss) UTC,Instrument flags,Ambient pressure (hPa),Sample flow (lpm),Bypass flow (lpm),Sample temperature (°C),Ambient temperature (°C),ASC tube jacket temperature (°C),LED temperature (°C),Box temperature (°C),Sample RH (%),Span deviation,Mass concentration (μg/m³),Mass concentration (μg/m³),Mass concentration (μg/m³)
DateTimeUTC,F1_M11,P_M11,Q1_M11,Q2_M11,T1_M11,T2_M11,T3_M11,T4_M11,T5_M11,U1_M11,ZSPAN_M11,X0_M11,X2_M11,X1_M11
2022-04-29 03:00:00,,0815.1,4.98,0.00,29.2,28.4,00.0,38.1,31.1,10.0,0001.6,0022.93,0008.45,0005.52
2022-04-29 03:01:00,,0815.0,5.01,0.00,29.2,28.4,00.0,38.1,31.1,10.0,0002.1,0023.75,0008.55,0005.53
2022-04-29 03:02:00,,0815.0,4.99,0.00,29.2,28.5,00.0,38.1,31.0,10.1,0001.7,0023.64,0008.57,0005.53
2022-04-29 03:03:00,,0815.0,4.98,0.00,29.2,28.5,00.0,38.1,31.1,10.1,0001.7,0023.44,0008.54,0005.51
2022-04-29 03:04:00,,0815.0,5.02,0.00,29.2,28.5,00.0,38.1,31.1,10.2,0002.1,0023.87,0008.53,0005.48
2022-04-29 03:05:00,,0814.9,5.00,0.00,29.2,28.4,00.0,38.1,31.1,10.2,0001.7,0023.92,0008.58,0005.45
2022-04-29 03:06:00,,0814.9,4.99,0.00,29.2,28.5,00.0,38.1,31.1,10.2,0002.4,0023.43,0008.53,0005.42
2022-04-29 03:07:00,,0815.0,5.00,0.00,29.2,28.5,00.0,38.2,31.1,10.1,0003.2,0024.24,0008.49,0005.41
2022-04-29 03:08:00,,0814.9,5.01,0.00,29.3,28.5,00.0,38.2,31.0,10.4,0003.8,0023.53,0008.52,0005.40
2022-04-29 03:09:00,,0814.9,4.98,0.00,29.3,28.5,00.0,38.2,31.1,10.4,0003.3,0023.86,0008.59,0005.40
2022-04-29 03:10:00,,0814.9,5.00,0.00,29.2,27.3,00.0,38.2,30.8,10.5,0003.0,0024.20,0008.47,0005.39
2022-04-29 03:11:00,,0815.0,5.02,0.00,29.1,25.5,00.0,38.1,30.4,10.5,0003.4,0023.78,0008.34,0005.38
2022-04-29 03:12:00,,0815.0,5.00,0.00,29.0,25.5,00.0,38.1,30.4,10.4,0002.1,0023.84,0008.32,0005.38
2022-04-29 03:13:00,,0815.0,4.99,0.00,29.0,25.9,00.0,38.0,30.4,10.4,0003.5,0024.10,0008.29,0005.37
2022-04-29 03:14:00,,0815.0,4.99,0.00,28.9,26.3,00.0,38.0,30.5,10.3,0003.1,0024.09,0008.29,0005.37
2022-04-29 03:15:00,,0815.0,5.00,0.00,28.9,26.7,00.0,38.0,30.6,10.3,0002.8,0023.36,0008.25,0005.37
2022-04-29 03:16:00,,0815.0,5.02,0.00,28.9,27.0,00.0,38.0,30.6,10.2,0002.6,0022.01,0008.16,0005.37
2022-04-29 03:17:00,,0815.0,4.98,0.00,28.9,27.2,00.0,37.9,30.6,10.1,0002.7,0021.46,0008.15,0005.39
2022-04-29 03:18:00,,0815.0,5.01,0.00,28.9,27.4,00.0,37.9,30.6,10.1,0002.8,0020.74,0008.15,0005.38
2022-04-29 03:19:00,,0815.0,4.99,0.00,28.9,27.5,00.0,37.9,30.6,10.1,0002.5,0020.69,0008.10,0005.36
2022-04-29 03:20:00,,0815.0,5.02,0.00,28.9,27.7,00.0,37.9,30.7,10.1,0002.3,0020.67,0008.01,0005.33
2022-04-29 03:21:00,,0815.0,4.99,0.00,28.9,27.8,00.0,37.9,30.7,10.1,0002.6,0019.92,0008.02,0005.32
2022-04-29 03:22:00,,0815.0,5.00,0.00,28.9,27.9,00.0,37.9,30.7,10.1,0002.9,0019.96,0008.09,0005.32
2022-04-29 03:23:00,,0815.1,5.00,0.00,28.9,28.0,00.0,37.9,30.7,10.1,0002.5,0019.87,0008.02,0005.31
2022-04-29 03:24:00,,0815.4,5.00,0.00,28.9,28.0,00.0,37.9,30.8,10.1,0002.2,0019.44,0007.92,0005.29
2022-04-29 03:25:00,,0815.2,5.00,0.00,29.0,28.1,00.0,37.9,30.8,10.5,0002.5,0019.18,0007.90,0005.27
2022-04-29 03:26:00,,0815.2,4.99,0.00,29.0,28.2,00.0,37.9,30.9,10.8,0003.2,0019.80,0007.94,0005.27
2022-04-29 03:27:00,,0815.3,5.01,0.00,29.0,28.3,00.0,37.9,30.9,10.8,0003.5,0020.09,0008.03,0005.27
2022-04-29 03:28:00,,0815.2,4.99,0.00,29.1,28.3,00.0,37.9,30.9,10.7,0003.2,0019.95,0008.03,0005.24
2022-04-29 03:29:00,,0815.3,5.01,0.00,29.1,28.4,00.0,38.0,31.0,10.7,0003.4,0020.50,0008.07,0005.24
2022-04-29 03:30:00,,0815.2,5.00,0.00,29.1,28.4,00.0,38.0,31.0,10.6,0003.4,0020.41,0008.07,0005.25
2022-04-29 03:31:00,,0815.2,4.98,0.00,29.1,28.5,00.0,38.0,31.0,10.6,0003.0,0020.39,0008.12,0005.27
2022-04-29 03:32:00,,0815.3,5.01,0.00,29.2,28.5,00.0,38.0,31.1,10.6,0002.4,0020.68,0008.23,0005.28
2022-04-29 03:33:00,,0815.2,5.00,0.00,29.2,28.5,00.0,38.0,31.1,10.6,0001.6,0020.89,0008.27,0005.28
2022-04-29 03:34:00,,0815.1,4.98,0.00,29.2,28.6,00.0,38.1,31.1,10.7,0002.3,0020.20,0008.29,0005.28
2022-04-29 03:35:00,,0815.1,5.01,0.00,29.3,28.6,00.0,38.1,31.1,10.4,0002.3,0020.09,0008.41,0005.29
2022-04-29 03:36:00,,0815.0,5.01,0.00,29.3,28.6,00.0,38.1,31.2,10.4,0002.6,0020.03,0008.37,0005.30
2022-04-29 03:37:00,,0815.0,4.99,0.00,29.3,28.7,00.0,38.1,31.2,10.2,0000.7,0020.02,0008.31,0005.29
2022-04-29 03:38:00,,0815.0,5.01,0.00,29.4,28.7,00.0,38.2,31.3,10.5,0000.2,0020.83,0008.26,0005.29
2022-04-29 03:39:00,,0815.0,5.01,0.00,29.4,28.7,00.0,38.2,31.3,10.7,0000.9,0020.93,0008.27,0005.30
2022-04-29 03:40:00,,0815.0,4.99,0.00,29.4,28.7,00.0,38.2,31.3,10.7,0001.3,0020.48,0008.28,0005.31
2022-04-29 03:41:00,,0815.0,5.01,0.00,29.4,27.3,00.0,38.2,30.9,10.7,0001.3,0020.57,0008.33,0005.33
2022-04-29 03:42:00,,0815.0,5.01,0.00,29.2,25.6,00.0,38.2,30.6,10.6,0001.5,0020.83,0008.45,0005.35
2022-04-29 03:43:00,,0815.0,4.99,0.00,29.1,25.6,00.0,38.1,30.6,10.6,0002.5,0021.64,0008.52,0005.35
2022-04-29 03:44:00,,0815.0,5.00,0.00,29.1,26.0,00.0,38.1,30.7,10.8,0003.2,0022.73,0008.52,0005.34
2022-04-29 03:45:00,,0815.0,5.01,0.00,29.1,26.4,00.0,38.1,30.7,10.8,0002.6,0023.35,0008.50,0005.32
2022-04-29 03:46:00,,0815.0,5.01,0.00,29.0,26.8,00.0,38.1,30.7,10.7,0002.1,0023.66,0008.49,0005.32
2022-04-29 03:47:00,,0815.0,4.98,0.00,29.0,27.1,00.0,38.1,30.7,10.7,0002.3,0023.94,0008.55,0005.32
2022-04-29 03:48:00,,0815.0,5.01,0.00,29.0,27.4,00.0,38.1,30.8,10.7,0001.5,0024.25,0008.59,0005.31
2022-04-29 03:49:00,,0815.0,5.01,0.00,29.1,27.6,00.0,38.0,30.8,10.6,0001.9,0023.12,0008.59,0005.32
2022-04-29 03:50:00,,0815.0,4.99,0.00,29.1,27.7,00.0,38.0,30.9,10.6,0001.7,0022.72,0008.67,0005.32
2022-04-29 03:51:00,,0815.1,5.01,0.00,29.1,27.9,00.0,38.0,30.9,10.6,0001.5,0023.20,0008.60,0005.32
2022-04-29 03:52:00,,0815.1,4.99,0.00,29.1,28.0,00.0,38.1,30.9,10.6,0001.5,0023.09,0008.48,0005.30
2022-04-29 03:53:00,,0815.1,4.99,0.00,29.1,28.1,00.0,38.1,31.0,10.7,0002.4,0023.15,0008.35,0005.27
2022-04-29 03:54:00,,0815.1,5.01,0.00,29.1,28.1,00.0,38.1,31.0,10.7,0002.5,0022.39,0008.18,0005.26
2022-04-29 03:55:00,,0815.1,4.98,0.00,29.2,28.2,00.0,38.1,31.0,10.5,0002.7,0020.95,0008.11,0005.25
2022-04-29 03:56:00,,0815.1,5.01,0.00,29.2,28.3,00.0,38.1,31.0,10.5,0002.9,0020.14,0008.11,0005.26
2022-04-29 03:57:00,,0815.1,4.99,0.00,29.2,28.3,00.0,38.1,31.0,10.5,0003.2,0019.58,0008.07,0005.25
2022-04-29 03:58:00,,0815.1,5.01,0.00,29.2,28.3,00.0,38.1,31.1,10.5,0002.8,0019.46,0008.03,0005.25
2022-04-29 03:59:00,,0815.1,5.00,0.00,29.2,28.4,00.0,38.1,31.1,10.5,0002.9,0019.14,0007.99,0005.25
